METEOSAT-7

Last updated on Mon Sep 04 2017 01:17:58 GMT+0100 (British Summer Time)

1 24932U 97049B 17245.95319530 -.00000002 00000-0 00000+0 0 9995 2 24932 10.7422 36.6587 0008525 310.3598 49.6646 0.98308234 73206
UTC large
Height (km)
Speed (km/s)
/
Latitude / Longitude
Inclination (degrees)
Orbital Period (minutes)
Azimuth
Elevation
Range (km)
Doppler Factor

Next 0 passes for location: London (51.5072 / 0.1276)

Sorry there are no passes over London.